MIDORI II (ADEOS-II)

Last updated on Thu Oct 30 2025 00:02:15 GMT+0000 (Coordinated Universal Time)

1 27597U 02056A 25302.46923407 .00000443 00000+0 19227-3 0 9994 2 27597 98.7560 255.2107 0001868 53.4457 306.6896 14.29159240191556
UTC large
Height (km)
Speed (km/s)
/
Latitude / Longitude
Inclination (degrees)
Orbital Period (minutes)
Azimuth
Elevation
Range (km)
Doppler Factor

Next 0 passes for location: London (51.5072 / 0.1276)

Sorry there are no passes over London.